Location: Carrières
(48.9495°N, 2.0407°E)
Time: 07:02:36
(UTC+00:00)

Cosmos 1408 - Pass Details

Date: 28 January 2023
Orbit: 431 x 463 km, 82.6° (Epoch: 30 March)

Event Time Altitude Azimuth Distance (km) Brightness Sun altitude
Rises 17:49:34 0° 157° (SSE) 2,397 6.0 -11.1°
Reaches altitude 10° 17:51:52 10° 142° (SE) 1,538 4.9 -11.5°
Maximum altitude 17:54:32 22° 89° (E) 1,005 3.6 -11.9°
Enters shadow 17:55:27 20° 65° (ENE) 1,088 3.7 -12.1°
